Regional Weather Roundup
Issued by NWS

Home | Current Version | Previous Version | Text Only | Print | Product List | Glossary Off
Versions: 1 2 3 4 5 6 7 8 9 10 11 12 13 14 15 16 17 18 19 20 21 22 23 24 25 26 27 28 29 30 31 32 33 34 35 36 37 38 39 40 41 42 43 44 45 46 47 48 49 50

000
ASUS45 KSLC 282310
RWRUT

UTAH REGIONAL WEATHER ROUNDUP
NATIONAL WEATHER SERVICE SALT LAKE CITY UT
500 PM MDT THU AUG 28 2014

UTZ001>011-023>025-290000-

NORTHERN UTAH

CITY           SKY/WX    TMP DP  RH WIND       PRES   REMARKS
HILL AFB       SUNNY     80  44  27 VRB5      30.16F
LOGAN          SUNNY     81  49  32 W5        30.12F
OGDEN          SUNNY     81  41  24 W8        30.13F
PROVO AIRPORT  NOT AVBL
SALT LAKE CITY MOSUNNY   84  37  18 NW7       30.11F
VERNAL         SUNNY     74  49  41 SW6       30.17F
WENDOVER       SUNNY     86  39  19 SE8       30.11F
HEBER CITY     MOSUNNY   77  45  31 W5        30.20F
WEST JORDAN    SUNNY     82  52  34 N7        30.15F

$$

UTZ012>022-026-027-290000-

SOUTHERN UTAH

CITY           SKY/WX    TMP DP  RH WIND       PRES   REMARKS
BRYCE CANYON   PTSUNNY   73  39  29 W16G29    30.32F
CEDAR CITY     SUNNY     81  31  16 CALM      30.19F
MILFORD        SUNNY     86  36  16 NE12      30.15F
MOAB/CYNLANDS  SUNNY     84  44  24 NW3       30.10F
PRICE          PTSUNNY   78  39  24 S7        30.20F
ST GEORGE      CLEAR     93  43  17 NE3       29.99F

$$

REGIONAL REPORTS     COLORADO/ARIZONA

CITY           SKY/WX    TMP DP  RH WIND       PRES   REMARKS
CRAIG, CO      PTSUNNY   73  49  42 W12       30.22F
GRAND JUNCTION MOSUNNY   76  50  40 SE6       30.15F
RIFLE          SUNNY     72  50  45 VRB3      30.19F
MONTROSE       MOSUNNY   73  47  39 NW6       30.24F
CORTEZ         SUNNY     77  43  29 N15G22    30.20F
PAGE, AZ       SUNNY     86  38  18 SE3       30.10F
GRAND CANYON   SUNNY     77  37  23 N7        30.27F
KINGMAN        SUNNY     94  32  11 MISG      30.03F
FLAGSTAFF      MOSUNNY   73  41  31 E3        30.29F

$$

REGIONAL REPORTS    NEVADA/IDAHO/WYOMING

CITY           SKY/WX    TMP DP  RH WIND       PRES   REMARKS
LAS VEGAS, NV  SUNNY    101  31   8 CALM      29.88F HX  94
ELY            SUNNY     82  27  13 VRB3      30.23F
ELKO           SUNNY     88  27  11 VRB7      30.12F
POCATELLO, ID  MOSUNNY   86  38  18 W13       30.09F
BURLEY         SUNNY     85  45  24 SW8       30.06F
EVANSTON, WY   CLOUDY    73  43  33 SW9       30.29F
ROCK SPRINGS   SUNNY     74  38  27 W15       30.23F

$$



USA.gov is the U.S. government's official web portal to all federal, state and local government web resources and services.